Location: Saluda
(35.2377°N, 82.3468°W)
Time: 05:59:04
(UTC+00:00)

Vanguard 2 - Pass Details

Date: 12 October 2022
Orbit: 553 x 2933 km, 32.9° (Epoch: 26 November)

Event Time Altitude Azimuth Distance (km) Brightness Sun altitude
Rises 17:16:03 0° 263° (W) 3,737 11.1 47.2°
Reaches altitude 10° 17:18:14 10° 262° (W) 3,011 10.8 47.2°
Maximum altitude 17:25:53 79° 177° (S) 1,626 10.4 47.1°
Drops below altitude 10° 17:39:07 10° 94° (E) 4,963 11.7 46.8°
Sets 17:43:46 0° 93° (E) 6,273 12.1 46.7°
